Hourly Weather Roundup
Issued by NWS Central Illinois

Home | Current Version | Previous Version | Text Only | Print | Product List | Glossary On
Versions: 1 2 3 4 5 6 7 8 9 10 11 12 13 14 15 16 17 18 19 20 21 22 23 24 25 26 27 28 29 30 31 32 33 34 35 36 37 38 39 40 41 42 43 44 45 46 47 48 49 50
254
NZUS43 KILX 282310
HWRILX

AREA WEATHER ROUNDUP
NATIONAL WEATHER SERVICE, LINCOLN IL
600 PM CDT TUE MAR 28 2017


CITY           SKY/WX    TMP DP  RH WIND       PRES   REMARKS
BLOOMINGTON    CLOUDY    48  43  82 N15       30.13R
CHAMPAIGN      CLOUDY    53  42  66 NE12      30.10R
DECATUR        CLOUDY    54  45  71 N9        30.10R
EFFINGHAM      CLOUDY    58  49  74 N3        30.10R
FLORA          CLOUDY    62  50  66 N8        30.07R
GALESBURG      CLOUDY    50  43  77 NE8       30.11S
JACKSONVILLE   CLOUDY    53  47  79 NE8       30.10R
LACON          CLOUDY    49  42  76 N7        30.13R
LAWRENCEVILLE  CLOUDY    61  51  70 NE6       30.06R
LITCHFIELD     CLOUDY    55  47  77 NE8       30.08R
$$


CITY           SKY/WX    TMP DP  RH WIND       PRES   REMARKS
LINCOLN        CLOUDY    54  47  78 N5        30.12R
MACOMB         CLOUDY    52  46  80 NE8       30.14R
MATTOON        CLOUDY    56  46  69 N8        30.08R
MT CARMEL AP   CLOUDY    61  49  63 N7        30.06R
OLNEY-NOBLE AP CLOUDY    59  52  77 N6        30.07R
PARIS          CLOUDY    55  46  74 N9        30.10R
PEORIA         CLOUDY    52  43  71 NE8       30.12R
PONTIAC        CLOUDY    48  43  82 NE8       30.15R
RANTOUL        CLOUDY    51  43  74 NE9       30.12R
SPRINGFIELD    CLOUDY    54  46  74 NE12      30.11R
TAYLORVILLE    CLOUDY    54  46  76 N10       30.10R
$$

...REGIONAL REPORTS...


CITY           SKY/WX    TMP DP  RH WIND       PRES   REMARKS
CHICAGO O`HARE PTSUNNY   44  36  73 NE9       30.16R
KANKAKEE       CLOUDY    44  38  78 NE8       30.16R
MOLINE         CLOUDY    51  41  68 E8        30.13R
MOUNT STERLING CLOUDY    53  46  77 NE7       30.10R
MOUNT VERNON   SUNNY     61  49  64 NE8       30.05S
PITTSFIELD     CLOUDY    54  48  81 NE7       30.11R
QUINCY         CLOUDY    52  49  89 NE8       30.10R
ROCKFORD       PTSUNNY   55  40  56 E5        30.14S
$$


CITY           SKY/WX    TMP DP  RH WIND       PRES   REMARKS
BURLINGTON     CLOUDY    51  47  86 E6        30.11R
CEDAR RAPIDS   PTSUNNY   51  44  77 E8        30.11S
DES MOINES     CLOUDY    52  42  69 NE8       30.10S
KIRKSVILLE     CLOUDY    52  48  86 NE10      30.07F
OTTUMWA        CLOUDY    52  45  77 E10       30.10S
ST LOUIS       CLOUDY    59  48  67 NE9       30.07R
$$


CITY           SKY/WX    TMP DP  RH WIND       PRES   REMARKS
TERRE HAUTE    CLOUDY    58  46  64 N8        30.08R
EVANSVILLE     CLOUDY    61  51  70 N6        30.06R
INDIANAPOLIS   CLOUDY    55  45  68 N9        30.08R
LAFAYETTE      CLOUDY    47  41  80 N8        30.11R
MADISON        MOSUNNY   55  37  50 NE13      30.14R
MILWAUKEE      FOG       37  33  85 N9        30.19R VSB 1   WCI  30
$$






USA.gov is the U.S. government's official web portal to all federal, state and local government web resources and services.